Weather in Yablonov

Ukraine / Ternopil District     49°08′46″N   25°51′13″E
temp.,
°C
wind,
m/s
gust,
m/s
humid.,
%
clouds,
%
prec.,
mm/h
press.,
hPa
HPBL,
m
13 april, tue
tue1300:00+10sse345928 0.0 101945
03:00+9sse335761 0.0 101843
06:00+8se23597 0.0 101832
09:00+11se345153 0.0 1018199
12:00+14ssw224398 0.0 1017793
15:00+16wnw324398 0.0 10161547
18:00+13nw776999 0.0 1015511
21:00+7nw6783100 0.0 1016376
14 april, wed
wed1400:00+6nnw5684100 0.0 1016384
03:00+6nnw4585100 0.0 1015360
06:00+6nnw3487100 0.0 1014362
09:00+6nw3490100 0.0 1014384
12:00+6wnw4488100 0.1 1014441
15:00+5wnw4487100 0.1 1014457
18:00+3wnw5592100 0.0 1014384
21:00+2nw5795100 0.0 1015372
15 april, thu
thu1500:00+2nw5896100 0.1 1015357
03:00+1nw5998100 1.4 1014328
06:00+1nw5997100 1.7 1014321
09:00+1nw5997100 2.8 1015355
12:00+1nw51099100 2.6 1015319
15:00+1wnw61198100 4.1 1015351
18:00+1wnw71298100 1.4 1015404
21:000wnw71399100 4.4 1015419
16 april, fri
fri1600:00+1wnw71498100 1.9 1014491
03:00+1wnw81498100 3.9 1013467
06:000wnw81399100 5.9 1012419
09:00+1wnw71299100 6.4 1012397
12:00+1wnw713100100 0.8 1013423
15:00+1wnw71399100 2.6 1013475
18:00+2wnw71499100 1.8 1014463
21:00+2wnw61299100 2.1 1016352
17 april, sat
sat1700:00+2wnw61199100 0.0 1017343
03:00+2wnw5999100 0.0 1018267
06:00+2wnw4899100 0.0 1018258
09:00+3nw34100100 0.0 1019161
12:00+5ssw1197100 0.2 1020180
15:00+5wsw119196 0.4 1021267
18:00+6nw228898 0.2 1021141
21:00+5ne119053 0.3 102231